Keahole Point, HI

8:13 AM HST on April 28, 2017 (GMT -1000)
Kona International At Keahole

Weather History for PHKO - January, 2013

Change the Weather History Date:

Tuesday, January 1, 2013

  Actual Average Record
Temperature  
Mean Temperature 75 °F -  
Max Temperature 81 °F 79 °F 89 °F (1984)
Min Temperature 69 °F 67 °F 32 °F (2016)
Cooling Degree Days 10    
Growing Degree Days 25 (Base 50)    
Moisture  
Dew Point 63 °F    
Average Humidity 65    
Maximum Humidity 76    
Minimum Humidity 52    
Precipitation  
Precipitation 0.00 in - - ()
Sea Level Pressure  
Sea Level Pressure 30.02 in    
Wind  
Wind Speed 7 mph (ESE)    
Max Wind Speed 17 mph    
Max Gust Speed 21 mph    
Visibility 10 miles    
Events      
Averages and records for this station are not official NWS values.
T = Trace of Precipitation, MM = Missing Value Source: NWS Daily Summary

Daily Weather History Graph

Daily Weather History Graph

Search for Another Location

Airport or City:

Trip Planner

Search our weather history database for the weather conditions in past years. The results will help you decide how hot, cold, wet, or windy it might be!

Date:

Astronomy

Jan. 01, 2013 Rise Set
Actual Time 6:59 AM HST 5:57 PM HST
Civil Twilight 6:35 AM HST 6:21 PM HST
Nautical Twilight 6:07 AM HST 6:48 PM HST
Astronomical Twilight 5:40 AM HST 7:15 PM HST
Moon 10:00 PM HST (1/1) 9:51 AM HST (1/1)
Length of Visible Light 11h 45m
Length of Day
10h 58m
Waning Gibbous, 82% of the Moon is Illuminated
Jan 1
Waning Gibbous
Jan 4
Last Quarter
Jan 11
New
Jan 18
First Quarter
Jan 26
Full

Hourly Weather History & Observations

Time (HST) Temp. Heat Index Dew Point Humidity Pressure Visibility Wind Dir Wind Speed Gust Speed Precip Events Conditions
12:53 AM 73.0 °F - 63.0 °F 71% 30.05 in 10.0 mi SE 5.8 mph - N/A   Clear
1:53 AM 72.0 °F - 63.0 °F 73% 30.04 in 10.0 mi SE 8.1 mph - N/A   Clear
2:53 AM 72.0 °F - 64.0 °F 76% 30.02 in 10.0 mi SE 9.2 mph - N/A   Clear
3:53 AM 72.0 °F - 62.1 °F 71% 30.01 in 10.0 mi SE 4.6 mph - N/A   Clear
4:53 AM 70.0 °F - 60.1 °F 71% 30.04 in 10.0 mi NE 3.5 mph - N/A   Clear
5:39 AM 69.8 °F - 60.8 °F 73% 30.05 in 10.0 mi ENE 5.8 mph - N/A   Mostly Cloudy
5:53 AM 70.0 °F - 60.1 °F 71% 30.06 in 10.0 mi ENE 6.9 mph - N/A   Mostly Cloudy
6:01 AM 71.6 °F - 60.8 °F 69% 30.06 in 10.0 mi NE 5.8 mph - N/A   Mostly Cloudy
6:53 AM 70.0 °F - 61.0 °F 73% 30.06 in 10.0 mi NE 4.6 mph - N/A   Clear
7:53 AM 73.9 °F - 60.1 °F 62% 30.06 in 10.0 mi North 6.9 mph - N/A   Clear
8:53 AM 77.0 °F - 61.0 °F 58% 30.08 in 10.0 mi SE 5.8 mph - N/A   Clear
9:53 AM 79.0 °F - 64.0 °F 60% 30.07 in 10.0 mi SW 5.8 mph - N/A   Clear
10:53 AM 79.0 °F - 66.9 °F 66% 30.04 in 10.0 mi NNW 6.9 mph - N/A   Clear
11:53 AM 80.1 °F 82.3 °F 66.9 °F 64% 30.01 in 10.0 mi WSW 8.1 mph - N/A   Clear
12:53 PM 79.0 °F - 66.0 °F 64% 29.99 in 10.0 mi SSW 6.9 mph - N/A   Clear
1:53 PM 81.0 °F 83.3 °F 66.9 °F 62% 29.96 in 10.0 mi South 10.4 mph - N/A   Scattered Clouds
2:53 PM 81.0 °F 83.3 °F 66.9 °F 62% 29.95 in 10.0 mi South 12.7 mph - N/A   Clear
3:53 PM 80.1 °F 82.1 °F 66.0 °F 62% 29.96 in 10.0 mi South 12.7 mph - N/A   Partly Cloudy
4:53 PM 79.0 °F - 66.9 °F 66% 29.97 in 10.0 mi South 16.1 mph - N/A   Clear
5:53 PM 78.1 °F - 66.9 °F 68% 30.00 in 10.0 mi SSE 11.5 mph - N/A   Partly Cloudy
6:53 PM 77.0 °F - 66.0 °F 69% 30.01 in 10.0 mi South 6.9 mph - 0.00 in   Mostly Cloudy
7:53 PM 77.0 °F - 63.0 °F 62% 30.02 in 10.0 mi Variable 3.5 mph - N/A   Overcast
8:53 PM 75.9 °F - 57.0 °F 52% 30.03 in 10.0 mi NE 17.3 mph - N/A   Scattered Clouds
9:53 PM 75.9 °F - 59.0 °F 56% 30.04 in 10.0 mi NE 13.8 mph 20.7 mph 0.00 in   Overcast
10:53 PM 73.9 °F - 57.9 °F 57% 30.03 in 10.0 mi NNW 6.9 mph - N/A   Clear
11:53 PM 75.0 °F - 59.0 °F 57% 30.00 in 10.0 mi NE 9.2 mph - N/A   Clear